User: anonymous   Login
Location: Gesvres
(49.0440°N, 2.8518°E)
Time: 05:13:25
(UTC+00:00)
Language:

Cosmos 2263 Rocket - Orbit

View from above orbital plane
View from above orbital plane
View from above satellite
View from above satellite

Ground track
Ground track

The orbit data is extracted from the following two-line orbital elements,

1 22803U 93059B   23152.52078773 -.00000056  00000-0 -40793-5 0  9994
2 22803  70.9903 345.0928 0018901 307.8896  52.0517 14.16934061536140
Epoch (UTC): 01 June 2023 12:29:56
Eccentricity: 0.0018901
inclination: 70.9903°
perigee height: 822 km
apogee height: 849 km
right ascension of ascending node: 345.0928°
argument of perigee: 307.8896°
revolutions per day: 14.16934061
mean anomaly at epoch: 52.0517°
orbit number at epoch: 53614

The dashed part of the orbit path shows where the satellite is in the earth's shadow,  

DLR